Other Surface Observations
Issued by NWS Charleston, SC

Home | Current Version | Previous Version | Text Only | Print | Product List | Glossary On
Versions: 1 2 3 4 5 6 7 8 9 10 11 12 13 14 15 16 17 18 19 20 21 22 23 24 25 26 27 28 29 30 31 32 33 34 35 36 37 38 39 40 41 42 43 44 45 46 47 48 49 50
000
SXUS52 KCHS 260527
OSOCHS

MARINE OBSERVATIONS
NATIONAL WEATHER SERVICE CHARLESTON SC
100 AM EDT TUE SEP 26 2017

...DOWNTOWN CHARLESTON AND HARBOR...

CITY           SKY/WX    TMP DP  RH WIND       PRES   REMARKS
WATERFRONT PRK   N/A     77  70  79 NW5       29.72S

...LAKE MOULTRIE...

CITY           SKY/WX    TMP DP  RH WIND       PRES   REMARKS
PINOPOLIS        N/A     75  72  88 N7        29.81F

...LAKE AND SUPPLEMENTAL COASTAL OBSERVATIONS...

STATION/POSITION TIME  TEMP    WIND        PRES    WAVE   SWELL
                       AIR SEA DIR/SP/G            HT/PER HT/PER/DIR
                 (UTC) (F)     (DEG/KT/KT) (MB)    (FT/S) (FT/S/D)
FORT PULASKI     0500   76 81  350/  4/  5 1012.4
SAPELO ISLAND    0500   73        CALM     1012.0
WINYAH BAY       0445   75     330/  4     1011.0S
LAKE MURRAY      0520   73      CALM  /  2 1012.9
ACE BASIN NERRS  0445   72        CALM     1012.0S


...C-MAN AND BUOY OBSERVATIONS...

STATION/POSITION TIME  TEMP    WIND        PRES    WAVE   SWELL
                       AIR SEA DIR/SP/G            HT/PER HT/PER/DIR
                 (UTC) (F)     (DEG/KT/KT) (MB)    (FT/S) (FT/S/D)
BUOY 41004       0510   79 81  360/ 16/ 19 1009.8
BUOY 41008       0450   80 80  360/  8/ 10 1011.5F   5/11   5/ 90/11
FOLLY BEACH CMAN 0500   77     340/  6/  9 1012.1F
CAPERS NS BUOY   NOT AVBL
FRIPP NS BUOY    0408   78      30/ 10/ 14 1017.5F
5E ST. MARYS GA  0500      81                N/A     5/13   3/ 80/13


STATION/POSITION TIME  TEMP    WIND        PRES    WAVE   SWELL
                       AIR SEA DIR/SP/G            HT/PER HT/PER/DIR
                 (UTC) (F)     (DEG/KT/KT) (MB)    (FT/S) (FT/S/D)
FRYING PAN BUOY  0510   78 81   10/ 23/ 29 1007.8
BUOY 41025       0450   77 77   20/ 23/ 29 1005.8F  16/13  15/140/13
CAPE LOOKOUT NC  0500   75     360/ 19/ 23 1007.6F
BUOY 41002       0450   80 81  320/ 35/ 43  993.0R  19/11
BUOY 41010       0510          330/ 12/ 16 1010.0
ST AUGUSTINE FL  0500   79 82   30/  9/ 10 1012.1F

$$




USA.gov is the U.S. government's official web portal to all federal, state and local government web resources and services.